| time (UTC) | temp F | wind direction | speed MPH | gust MPH | rain 1hr in | rain 24hr in | rain mn in | humidity % | barometer mb |
| 20260906204534 | 81 | 0.0 | 10.0 | 0.00 | 0.00 | 0.00 | 55 | 1016.7 | |
| 20260906203030 | 81 | 0.0 | 10.0 | 0.00 | 0.00 | 0.00 | 56 | 1016.7 | |
| 20260906201530 | 81 | 0.0 | 11.0 | 0.00 | 0.00 | 0.00 | 56 | 1016.7 | |
| 20260906200039 | 80 | 0.0 | 11.0 | 0.00 | 0.00 | 0.00 | 55 | 1016.6 | |
| 20260906194527 | 80 | 0.0 | 12.0 | 0.00 | 0.00 | 0.00 | 56 | 1016.7 | |
| 20260906193025 | 80 | 0.0 | 9.0 | 0.00 | 0.00 | 0.00 | 55 | 1016.7 | |
| 20260906191536 | 80 | 0.0 | 12.0 | 0.00 | 0.00 | 0.00 | 51 | 1016.8 | |
| 20260906190026 | 80 | 0.0 | 10.0 | 0.00 | 0.00 | 0.00 | 53 | 1016.7 | |
| 20260906184523 | 79 | 0.0 | 11.0 | 0.00 | 0.00 | 0.00 | 51 | 1016.9 | |
| 20260906183026 | 80 | 0.0 | 13.0 | 0.00 | 0.00 | 0.00 | 50 | 1016.9 | |
| 20260906181540 | 80 | 0.0 | 14.0 | 0.00 | 0.00 | 0.00 | 53 | 1017.0 | |
| 20260906180026 | 79 | 0.0 | 16.0 | 0.00 | 0.00 | 0.00 | 58 | 1017.1 | |
| 20260906174520 | 80 | 0.0 | 16.0 | 0.00 | 0.00 | 0.00 | 56 | 1017.3 | |
| 20260906173017 | 79 | 0.0 | 14.0 | 0.00 | 0.00 | 0.00 | 56 | 1017.4 | |
| 20260906171515 | 79 | 0.0 | 16.0 | 0.00 | 0.00 | 0.00 | 59 | 1017.4 | |
| 20260906170014 | 78 | 0.0 | 14.0 | 0.00 | 0.00 | 0.00 | 59 | 1017.4 | |
| 20260906164513 | 78 | 0.0 | 14.0 | 0.00 | 0.00 | 0.00 | 61 | 1017.6 | |
| 20260906163011 | 78 | 0.0 | 16.0 | 0.00 | 0.00 | 0.00 | 63 | 1017.9 | |
| 20260906161511 | 78 | 0.0 | 13.0 | 0.00 | 0.00 | 0.00 | 64 | 1018.0 | |
| 20260906160008 | 77 | 0.0 | 14.0 | 0.00 | 0.00 | 0.00 | 65 | 1018.2 | |
| 20260906154517 | 77 | 0.0 | 10.0 | 0.00 | 0.00 | 0.00 | 68 | 1018.1 | |
| 20260906153012 | 77 | 0.0 | 13.0 | 0.00 | 0.00 | 0.00 | 69 | 1017.9 | |
| 20260906151504 | 77 | 0.0 | 8.0 | 0.00 | 0.00 | 0.00 | 72 | 1017.7 | |
| 20260906150105 | 76 | 0.0 | 8.0 | 0.00 | 0.00 | 0.00 | 72 | 1017.7 | |
| 20260906144610 | 75 | 0.0 | 9.0 | 0.00 | 0.00 | 0.00 | 73 | 1017.7 | |
| 20260906143107 | 74 | 0.0 | 11.0 | 0.00 | 0.00 | 0.00 | 75 | 1017.5 | |
| 20260906141551 | 73 | 0.0 | 12.0 | 0.00 | 0.00 | 0.00 | 76 | 1017.3 | |
| 20260906140046 | 72 | 0.0 | 9.0 | 0.00 | 0.00 | 0.00 | 79 | 1017.2 | |
| 20260906134547 | 71 | 0.0 | 11.0 | 0.00 | 0.00 | 0.00 | 80 | 1017.7 | |
| 20260906133053 | 70 | 0.0 | 10.0 | 0.00 | 0.00 | 0.00 | 84 | 1017.7 | |
| 20260906131542 | 69 | 0.0 | 8.0 | 0.00 | 0.00 | 0.00 | 88 | 1017.7 | |
| 20260906130044 | 68 | 0.0 | 10.0 | 0.00 | 0.00 | 0.00 | 88 | 1017.5 | |
| 20260906124542 | 68 | 0.0 | 10.0 | 0.00 | 0.00 | 0.00 | 90 | 1017.4 | |
| 20260906123039 | 68 | 0.0 | 10.0 | 0.00 | 0.00 | 0.00 | 92 | 1017.2 | |
| 20260906121536 | 68 | 0.0 | 10.0 | 0.00 | 0.00 | 0.00 | 92 | 1017.0 | |
| 20260906120132 | 68 | 0.0 | 12.0 | 0.00 | 0.00 | 0.00 | 93 | 1016.7 | |
| 20260906114543 | 69 | 0.0 | 8.0 | 0.00 | 0.00 | 0.00 | 94 | 1016.6 | |
| 20260906113027 | 69 | 0.0 | 6.0 | 0.00 | 0.00 | 0.00 | 94 | 1016.2 | |
| 20260906111532 | 69 | 0.0 | 6.0 | 0.00 | 0.00 | 0.00 | 94 | 1015.8 | |
| 20260906110024 | 69 | 0.0 | 7.0 | 0.00 | 0.00 | 0.00 | 94 | 1015.7 | |
| 20260906104532 | 69 | 0.0 | 6.0 | 0.00 | 0.00 | 0.00 | 94 | 1015.7 | |
| 20260906103021 | 69 | 0.0 | 7.0 | 0.00 | 0.00 | 0.00 | 94 | 1015.5 | |
| 20260906101520 | 69 | 0.0 | 6.0 | 0.00 | 0.00 | 0.00 | 94 | 1015.6 | |
| 20260906100020 | 69 | 0.0 | 6.0 | 0.00 | 0.00 | 0.00 | 94 | 1015.4 | |
| 20260906094539 | 69 | 0.0 | 7.0 | 0.00 | 0.00 | 0.00 | 93 | 1015.3 | |
| 20260906093034 | 69 | 0.0 | 5.0 | 0.00 | 0.00 | 0.00 | 93 | 1015.1 | |
| 20260906091516 | 70 | 0.0 | 4.0 | 0.00 | 0.00 | 0.00 | 93 | 1015.2 | |
| 20260906090023 | 70 | 0.0 | 5.0 | 0.00 | 0.00 | 0.00 | 94 | 1015.0 | |
| 20260906084517 | 70 | 0.0 | 6.0 | 0.00 | 0.00 | 0.00 | 94 | 1015.2 | |
| 20260906083016 | 70 | 0.0 | 3.0 | 0.00 | 0.00 | 0.00 | 93 | 1015.3 | |
| 20260906081515 | 70 | 0.0 | 3.0 | 0.00 | 0.00 | 0.00 | 93 | 1015.2 | |
| 20260906080012 | 70 | 0.0 | 4.0 | 0.00 | 0.00 | 0.00 | 93 | 1015.3 | |
| 20260906074511 | 70 | 0.0 | 4.0 | 0.00 | 0.00 | 0.00 | 93 | 1015.2 | |
| 20260906073017 | 70 | 0.0 | 3.0 | 0.00 | 0.00 | 0.00 | 93 | 1015.0 | |
| 20260906071509 | 71 | 0.0 | 3.0 | 0.00 | 0.00 | 0.00 | 93 | 1015.0 | |
| 20260906070008 | 71 | 0.0 | 4.0 | 0.00 | 0.00 | 0.00 | 92 | 1015.2 | |
| 20260906064507 | 71 | 0.0 | 2.0 | 0.00 | 0.00 | 0.00 | 92 | 1015.3 | |
| 20260906063006 | 71 | 0.0 | 4.0 | 0.00 | 0.00 | 0.00 | 92 | 1015.1 | |
| 20260906061504 | 71 | 0.0 | 5.0 | 0.00 | 0.00 | 0.00 | 91 | 1015.0 | |
| 20260906060001 | 71 | 0.0 | 6.0 | 0.00 | 0.00 | 0.00 | 91 | 1014.9 | |
| 20260906054609 | 72 | 0.0 | 6.0 | 0.00 | 0.00 | 0.00 | 91 | 1014.7 | |
| 20260906053057 | 72 | 0.0 | 6.0 | 0.00 | 0.00 | 0.00 | 90 | 1014.5 | |
| 20260906051605 | 72 | 0.0 | 11.0 | 0.00 | 0.00 | 0.00 | 90 | 1014.5 | |
| 20260906050104 | 72 | 0.0 | 8.0 | 0.00 | 0.00 | 0.00 | 91 | 1014.3 | |
| 20260906044559 | 72 | 0.0 | 10.0 | 0.00 | 0.00 | 0.00 | 92 | 1014.3 | |
| 20260906043052 | 73 | 0.0 | 10.0 | 0.00 | 0.00 | 0.00 | 93 | 1014.1 | |
| 20260906041551 | 73 | 0.0 | 8.0 | 0.00 | 0.00 | 0.00 | 93 | 1014.0 | |
| 20260906040100 | 73 | 0.0 | 9.0 | 0.00 | 0.00 | 0.00 | 94 | 1013.9 | |
| 20260906034551 | 73 | 0.0 | 7.0 | 0.00 | 0.00 | 0.00 | 93 | 1013.8 | |
| 20260906033050 | 73 | 0.0 | 4.0 | 0.00 | 0.00 | 0.00 | 93 | 1013.7 | |
| 20260906031549 | 73 | 0.0 | 5.0 | 0.00 | 0.00 | 0.00 | 93 | 1013.7 | |
| 20260906030048 | 72 | 0.0 | 7.0 | 0.00 | 0.00 | 0.00 | 92 | 1013.7 | |
| 20260906024551 | 72 | 0.0 | 6.0 | 0.00 | 0.00 | 0.00 | 92 | 1013.8 | |
| 20260906023046 | 72 | 0.0 | 7.0 | 0.00 | 0.00 | 0.00 | 91 | 1013.9 | |
| 20260906021546 | 72 | 0.0 | 7.0 | 0.00 | 0.00 | 0.00 | 91 | 1014.0 | |
| 20260906020044 | 72 | 0.0 | 6.0 | 0.00 | 0.00 | 0.00 | 90 | 1014.0 | |
| 20260906014607 | 73 | 0.0 | 8.0 | 0.00 | 0.00 | 0.00 | 90 | 1013.7 | |
| 20260906013046 | 73 | 0.0 | 7.0 | 0.00 | 0.00 | 0.00 | 89 | 1013.3 | |
| 20260906011540 | 73 | 0.0 | 9.0 | 0.00 | 0.00 | 0.00 | 89 | 1013.1 | |
| 20260906010037 | 74 | 0.0 | 12.0 | 0.00 | 0.00 | 0.00 | 89 | 1013.3 | |
| 20260906004534 | 74 | 0.0 | 13.0 | 0.00 | 0.00 | 0.00 | 88 | 1013.1 | |
| 20260906003033 | 74 | 0.0 | 10.0 | 0.00 | 0.00 | 0.00 | 87 | 1013.1 | |
| 20260906001532 | 74 | 0.0 | 14.0 | 0.00 | 0.00 | 0.00 | 87 | 1012.9 | |
| 20260906000028 | 75 | 0.0 | 15.0 | 0.00 | 0.00 | 0.00 | 87 | 1012.6 | |
| 20260905234527 | 75 | 0.0 | 13.0 | 0.00 | 0.00 | 0.00 | 86 | 1012.6 | |
| 20260905233027 | 76 | 0.0 | 14.0 | 0.00 | 0.00 | 0.00 | 86 | 1012.6 | |
| 20260905231526 | 76 | 0.0 | 13.0 | 0.00 | 0.00 | 0.00 | 84 | 1012.6 | |
| 20260905230025 | 77 | 0.0 | 16.0 | 0.00 | 0.00 | 0.00 | 82 | 1012.5 | |
| 20260905224523 | 79 | 0.0 | 16.0 | 0.00 | 0.00 | 0.00 | 80 | 1012.5 | |
| 20260905223023 | 80 | 0.0 | 15.0 | 0.00 | 0.00 | 0.00 | 79 | 1012.4 | |
| 20260905221522 | 80 | 0.0 | 18.0 | 0.00 | 0.00 | 0.00 | 78 | 1012.3 | |
| 20260905220021 | 81 | 0.0 | 16.0 | 0.00 | 0.00 | 0.00 | 77 | 1012.2 | |
| 20260905214525 | 83 | 0.0 | 17.0 | 0.00 | 0.00 | 0.00 | 74 | 1012.1 | |
| 20260905213020 | 84 | 0.0 | 15.0 | 0.00 | 0.00 | 0.00 | 74 | 1012.1 | |
| 20260905211532 | 84 | 0.0 | 13.0 | 0.00 | 0.00 | 0.00 | 73 | 1011.9 | |
| 20260905210020 | 85 | 0.0 | 15.0 | 0.00 | 0.00 | 0.00 | 73 | 1011.9 |